FW8110 Weather Reports


time (UTC)temp
C
wind
direction
speed
KPH
gust
KPH
rain 1hr
cm
rain 24hr
cm
rain mn
cm
humidity
%
barometer
mb
20260506073003 6 355 0.0 0.0 0.00 0.00 0.00 68 1249.9
20260506071502 6 340 0.0 0.0 0.00 0.00 0.00 68 1249.6
20260506061503 7 338 3.2 4.8 0.00 0.00 0.00 62 1249.6
20260506051003 8 355 1.6 6.4 0.00 0.00 0.20 61 1249.6
20260506044003 8 344 0.0 6.4 0.00 0.00 0.20 61 1249.2
20260506035502 10 330 3.2 14.5 0.00 0.00 0.20 56 1248.6
20260506034003 10 347 0.0 11.3 0.00 0.00 0.20 52 1248.6
20260506032503 10 314 9.7 12.9 0.00 0.00 0.20 50 1247.9
20260506025507 11 336 6.4 14.5 0.00 0.00 0.20 48 1247.5
20260506024004 11 347 0.0 14.5 0.00 0.00 0.20 48 1247.2
20260506022503 11 335 4.8 11.3 0.00 0.00 0.20 46 1247.2
20260506015508 12 315 4.8 19.3 0.00 0.00 0.20 43 1246.9
20260506014004 13 327 9.7 20.9 0.00 0.00 0.20 41 1246.5
20260506011505 13 337 6.4 17.7 0.00 0.00 0.20 40 1246.5
20260506010006 13 53 0.0 11.3 0.00 0.00 0.20 40 1246.5
20260506003504 13 349 0.0 19.3 0.00 0.00 0.20 39 1246.5
20260506002002 14 59 4.8 12.9 0.00 0.00 0.20 37 1246.2
20260506000503 13 50 1.6 3.2 0.00 0.00 0.20 38 1246.5
20260505235003 13 205 6.4 9.7 0.00 0.00 0.20 41 1246.2
20260505233504 15 36 0.0 14.5 0.00 0.00 0.20 37 1245.9
20260505232003 14 290 9.7 16.1 0.00 0.00 0.20 41 1246.2
20260505225003 15 207 9.7 11.3 0.00 0.00 0.20 41 1246.5
20260505223503 15 199 4.8 12.9 0.00 0.00 0.20 42 1246.5
20260505222003 14 356 9.7 9.7 0.00 0.00 0.20 49 1246.9
20260505215005 13 34 0.0 9.7 0.00 0.00 0.20 53 1246.9
20260505213502 15 304 0.0 9.7 0.00 0.00 0.20 52 1247.5
20260505212002 14 322 6.4 22.5 0.00 0.00 0.20 49 1247.5
20260505210502 13 328 9.7 22.5 0.00 0.00 0.20 54 1248.2
20260505203502 11 304 19.3 20.9 0.00 0.00 0.20 60 1248.6
20260505202003 12 332 0.0 4.8 0.00 0.00 0.20 63 1248.6
20260505200503 12 296 9.7 19.3 0.00 0.00 0.20 63 1248.9
20260505195003 12 308 14.5 16.1 0.00 0.00 0.20 63 1248.9
20260505193503 11 321 12.9 17.7 0.00 0.00 0.20 69 1248.9
20260505192502 11 319 17.7 24.1 0.00 0.00 0.20 63 1248.9
20260505191003 11 331 0.0 6.4 0.00 0.00 0.20 75 1249.2
20260505185503 10 324 9.7 16.1 0.00 0.00 0.20 77 1249.6
20260505184004 10 0 0.0 19.3 0.00 0.00 0.20 77 1249.9
20260505183002 10 321 4.8 14.5 0.00 0.00 0.20 79 1249.6
20260505181503 9 314 9.7 24.1 0.00 0.00 0.20 80 1249.9
20260505180003 8 320 4.8 11.3 0.00 0.00 0.20 86 1249.9
20260505173003 7 323 0.0 16.1 0.00 0.00 0.20 91 1249.6
20260505171502 7 29 0.0 17.7 0.00 0.00 0.20 92 1249.6
20260505164502 7 353 0.0 12.9 0.03 0.00 0.20 94 1249.2
20260505163003 7 57 0.0 0.0 0.05 0.00 0.20 94 1249.2
20260505161503 7 15 0.0 0.0 0.05 0.00 0.20 95 1249.2
20260505153003 6 352 0.0 0.0 0.03 0.00 0.15 94 1249.2
20260505151503 6 23 0.0 0.0 0.05 0.00 0.15 95 1248.9
20260505150503 6 6 0.0 0.0 0.05 0.00 0.15 94 1249.2
20260505125003 5 2 0.0 1.6 0.05 0.00 0.10 93 1249.2
20260505121003 5 322 0.0 1.6 0.05 0.00 0.05 93 1249.9
20260505115503 6 338 0.0 16.1 0.05 0.00 0.05 92 1249.9
20260505114003 6 297 0.0 17.7 0.00 0.00 0.00 92 1250.3
20260505101003 7 332 0.0 0.0 0.00 0.00 0.00 82 1249.6
20260505095503 7 319 0.0 0.0 0.00 0.00 0.00 83 1249.9
20260505094003 7 27 0.0 0.0 0.00 0.00 0.00 83 1249.2
20260505093002 7 347 0.0 0.0 0.00 0.00 0.00 84 1249.2
20260505091503 7 340 0.0 0.0 0.00 0.00 0.00 85 1249.6
20260505090002 7 14 0.0 0.0 0.00 0.00 0.00 83 1249.6